QPF
0.00 0.00 0.00 0.00 0.00 0.00 0.00 0.00 0.00 0.00 0.00 0.00 0.00 0.00 0.00 0.00 0.00 0.00 0.00 0.00 0.00 0.00 0.00 0.00 0.00 0.00 0.00 0.00 0.00 0.00 0.00 0.00 0.00 0.00 0.00 0.00 0.00 0.00 0.00 0.00 0.00 0.00
0.00 0.00 0.00 0.00 0.00 0.00 0.00 0.00 0.00 0.00 0.00 0.00 0.00 0.00 0.00 0.00 0.00 0.00 0.00 0.00 0.00 0.00 0.00 0.00 0.00 0.00 0.00 0.00 0.00 0.00 0.00 0.00 0.00 0.00 0.00 0.00 0.00 0.00 0.00 0.00 0.00 0.00
0.00 0.00 0.00 0.00 0.00 0.00 0.00 0.00 0.00 0.00 0.00 0.00 0.00 0.00 0.00 0.00 0.00 0.00 0.00 0.00 0.00 0.00 0.00 0.00 0.00 0.00 0.00 0.00 0.00 0.00 0.00 0.00 0.00 0.00 0.00 0.00 0.00 0.00 0.00 0.00 0.00 0.00
0.00 0.00 0.00 0.00 0.00 0.00 0.00 0.00 0.00 0.00 0.00 0.00 0.00 0.00 0.00 0.00 0.00 0.00 0.00 0.00 0.00 0.00 0.00 0.00 0.00 0.00 0.00 0.00 0.00 0.00 0.00 0.00 0.00 0.00 0.00 0.00 0.00 0.00 0.00 0.00 0.00 0.00
0.00 0.00 0.00 0.00 0.00 0.00 0.00 0.00 0.00 0.00 0.00 0.00 0.00 0.00 0.00 0.00 0.00 0.00 0.00 0.00 0.00 0.00 0.00 0.00 0.00 0.00 0.00 0.00 0.00 0.00 0.00 0.00 0.00 0.00 0.00 0.00 0.00 0.00 0.00 0.00 0.00 0.00
0.00 0.00 0.00 0.00 0.00 0.00 0.00 0.00 0.00 0.00 0.00 0.00 0.00 0.00 0.00 0.00 0.00 0.00 0.00 0.00 0.00 0.00 0.00 0.00 0.00 0.00 0.00 0.00 0.00 0.00 0.00 0.00 0.00 0.00 0.00 0.00 0.00 0.00 0.00 0.00 0.00 0.00
0.00 0.00 0.00 0.00 0.00 0.00 0.00 0.00 0.00 0.00 0.00 0.00 0.00 0.00 0.00 0.00 0.00 0.00 0.00 0.00 0.00 0.00 0.00 0.00 0.00 0.00 0.00 0.00 0.00 0.00 0.00 0.00 0.00 0.00 0.00 0.00 0.00 0.00 0.00 0.00 0.00 0.00
0.00 0.00 0.00 0.00 0.00 0.00 0.00 0.00 0.00 0.00 0.00 0.00 0.00 0.00 0.00 0.00 0.00 0.00 0.00 0.00 0.00 0.00 0.00 0.00 0.00 0.00 0.00 0.00 0.00 0.00 0.00 0.00 0.00 0.00 0.00 0.00 0.00 0.00 0.00 0.00 0.00 0.00
0.00 0.00 0.00 0.00 0.00 0.00 0.00 0.00 0.00 0.00 0.00 0.00 0.00 0.00 0.00 0.00 0.00 0.00 0.00 0.00 0.00 0.00 0.00 0.00 0.00 0.00 0.00 0.00 0.00 0.00 0.00 0.00 0.00 0.00 0.00 0.00 0.00 0.00 0.00 0.00 0.00 0.00
0.00 0.00 0.00 0.00 0.00 0.00 0.00 0.00 0.00 0.00 0.00 0.00 0.00 0.00 0.00 0.00 0.00 0.00 0.00 0.00 0.00 0.00 0.00 0.00 0.00 0.00 0.00 0.00 0.00 0.00 0.00 0.00 0.00 0.00 0.00 0.00 0.00 0.00 0.00 0.00 0.00 0.00
0.00 0.00 0.00 0.00 0.00 0.00 0.00 0.00 0.00 0.00 0.00 0.00 0.00 0.00 0.00 0.00 0.00 0.00 0.00 0.00 0.00 0.00 0.00 0.00 0.00 0.00 0.00 0.00 0.00 0.00 0.00 0.00 0.00 0.00 0.00 0.00 0.00 0.00 0.00 0.00 0.00 0.00
0.00 0.00 0.00 0.00 0.00 0.00 0.00 0.00 0.00 0.00 0.00 0.00 0.00 0.00 0.00 0.00 0.00 0.00 0.00 0.00 0.00 0.00 0.00 0.00 0.00 0.00 0.00 0.00 0.00 0.00 0.00 0.00 0.00 0.00 0.00 0.00 0.00 0.00 0.00 0.00 0.00 0.00
0.00 0.00 0.00 0.00 0.00 0.00 0.00 0.00 0.00 0.00 0.00 0.00 0.00 0.00 0.00 0.00 0.00 0.00 0.00 0.00 0.00 0.00 0.00 0.00 0.00 0.00 0.00 0.00 0.00 0.00 0.00 0.00 0.00 0.00 0.00 0.00 0.00 0.00 0.00 0.00 0.00 0.00
0.00 0.00 0.00 0.00 0.00 0.00 0.00 0.00 0.00 0.00 0.00 0.00 0.00 0.00 0.00 0.00 0.00 0.00 0.00 0.00 0.00 0.00 0.00 0.00 0.00 0.00 0.00 0.00 0.00 0.00 0.00 0.00 0.00 0.00 0.00 0.00 0.00 0.00 0.00 0.00 0.00 0.00
0.00 0.00 0.00 0.00 0.00 0.00 0.00 0.00 0.00 0.00 0.00 0.00 0.00 0.00 0.00 0.00 0.00 0.00 0.00 0.00 0.00 0.00 0.00 0.00 0.00 0.00 0.00 0.00 0.00 0.00 0.00 0.00 0.00 0.00 0.00 0.00 0.00 0.00 0.00 0.00 0.00 0.00
0.00 0.00 0.00 0.00 0.00 0.00 0.00 0.00 0.00 0.00 0.00 0.00 0.00 0.00 0.00 0.00 0.00 0.00 0.00 0.00 0.00 0.00 0.00 0.00 0.00 0.00 0.00 0.00 0.00 0.00 0.00 0.00 0.00 0.00 0.00 0.00 0.00 0.00 0.00 0.00 0.00 0.00
0.00 0.00 0.00 0.00 0.00 0.00 0.00 0.00 0.00 0.00 0.00 0.00 0.00 0.00 0.00 0.00 0.00 0.00 0.00 0.00 0.00 0.00 0.00 0.00 0.00 0.00 0.00 0.00 0.00 0.00 0.00 0.00 0.00 0.00 0.00 0.00 0.00 0.00 0.00 0.00 0.00 0.00
0.00 0.00 0.00 0.00 0.00 0.00 0.00 0.00 0.00 0.00 0.00 0.00 0.00 0.00 0.00 0.00 0.00 0.00 0.00 0.00 0.00 0.00 0.00 0.00 0.00 0.00 0.00 0.00 0.00 0.00 0.00 0.00 0.00 0.00 0.00 0.00 0.00 0.00 0.00 0.00 0.00 0.00
0.00 0.00 0.00 0.00 0.00 0.00 0.00 0.00 0.00 0.00 0.00 0.00 0.00 0.00 0.00 0.00 0.00 0.00 0.00 0.00 0.00 0.00 0.00 0.00 0.00 0.00 0.00 0.00 0.00 0.00 0.00 0.00 0.00 0.00 0.00 0.00 0.00 0.00 0.00 0.00 0.00 0.00
0.00 0.00 0.00 0.00 0.00 0.00 0.00 0.00 0.00 0.00 0.00 0.00 0.00 0.00 0.00 0.00 0.00 0.00 0.00 0.00 0.00 0.00 0.00 0.00 0.00 0.00 0.00 0.00 0.00 0.00 0.00 0.00 0.00 0.00 0.00 0.00 0.00 0.00 0.00 0.00 0.00 0.00
0.03 0.00 0.02 0.02 0.00 0.00 0.00 0.00 0.00 0.00 0.00 0.00 0.00 0.00 0.00 0.00 0.00 0.00 0.00 0.00 0.00 0.00 0.00 0.00 0.00 0.00 0.00 0.00 0.00 0.00 0.00 0.00 0.00 0.00 0.00 0.00 0.00 0.00 0.00 0.00 0.00 0.00
0.16 0.05 0.01 0.04 0.04 0.01 0.01 0.01 0.00 0.00 0.00 0.00 0.00 0.00 0.00 0.00 0.00 0.00 0.00 0.00 0.00 0.00 0.00 0.00 0.00 0.00 0.00 0.00 0.00 0.00 0.00 0.00 0.00 0.00 0.00 0.00 0.00 0.00 0.00 0.00 0.00 0.00
0.29 0.14 0.11 0.05 0.15 0.10 0.12 0.11 0.00 0.01 0.00 0.00 0.00 0.00 0.00 0.00 0.00 0.00 0.00 0.00 0.00 0.00 0.00 0.00 0.00 0.00 0.00 0.00 0.00 0.00 0.00 0.00 0.00 0.00 0.00 0.00 0.00 0.00 0.00 0.00 0.00 0.00
0.12 0.09 0.11 0.14 0.12 0.19 0.09 0.09 0.16 0.09 0.02 0.02 0.01 0.00 0.00 0.00 0.00 0.00 0.00 0.00 0.00 0.00 0.00 0.00 0.00 0.00 0.00 0.00 0.00 0.00 0.00 0.00 0.00 0.00 0.00 0.00 0.00 0.00 0.00 0.00 0.00 0.00
0.24 0.13 0.14 0.06 0.18 0.15 0.20 0.25 0.17 0.12 0.08 0.06 0.03 0.02 0.01 0.01 0.00 0.00 0.00 0.00 0.00 0.00 0.00 0.00 0.00 0.00 0.00 0.00 0.00 0.00 0.00 0.00 0.00 0.00 0.00 0.00 0.00 0.00 0.00 0.00 0.00 0.00
0.05 0.09 0.10 0.20 0.30 0.30 0.37 0.19 0.31 0.47 0.27 0.13 0.09 0.02 0.01 0.04 0.00 0.00 0.00 0.00 0.00 0.00 0.00 0.00 0.00 0.00 0.00 0.00 0.00 0.00 0.00 0.00 0.00 0.00 0.00 0.00 0.00 0.00 0.00 0.00 0.00 0.00
MSLP
1018.23 1018.43 1018.71 1018.95 1019.07 1019.15 1019.39 1019.71 1019.75 1019.99 1020.15 1020.19 1020.47 1020.55 1020.63 1020.55 1020.55 1020.75 1020.87 1021.03 1021.19 1021.39 1021.51 1021.67 1021.75 1021.87 1021.91 1021.99 1022.07 1022.15 1022.27 1022.31 1022.27 1022.27 1022.43 1022.55 1022.71 1022.79 1022.95 1022.99 1023.03 1023.07
1018.03 1018.23 1018.39 1018.59 1018.87 1018.95 1019.11 1019.19 1019.47 1019.71 1019.95 1020.07 1020.11 1020.23 1020.27 1020.39 1020.51 1020.63 1020.83 1021.03 1021.11 1021.23 1021.31 1021.47 1021.59 1021.71 1021.79 1021.83 1021.99 1022.15 1022.23 1022.23 1022.39 1021.99 1022.39 1022.55 1022.59 1022.63 1022.75 1022.75 1022.87 1022.79
1017.79 1018.07 1018.31 1018.51 1018.59 1018.75 1018.83 1018.95 1019.15 1019.39 1019.59 1019.71 1019.83 1020.03 1020.15 1020.19 1020.47 1020.55 1020.67 1020.83 1021.03 1021.07 1021.23 1021.31 1021.43 1021.55 1021.67 1021.75 1021.87 1021.99 1022.07 1022.23 1022.31 1021.95 1022.19 1022.43 1022.35 1022.59 1022.51 1022.43 1022.55 1022.71
1017.55 1017.63 1017.83 1017.99 1018.07 1018.39 1018.51 1018.83 1019.07 1019.27 1019.31 1019.63 1019.75 1019.75 1019.91 1020.03 1020.23 1020.47 1020.63 1020.75 1020.91 1021.03 1021.03 1021.15 1021.27 1021.31 1021.47 1021.63 1021.79 1021.91 1021.91 1022.03 1021.87 1021.95 1022.19 1022.19 1022.23 1022.27 1022.39 1022.35 1022.43 1022.51
1017.11 1017.35 1017.47 1017.63 1017.75 1017.95 1018.23 1018.63 1018.83 1018.99 1019.19 1019.27 1019.39 1019.59 1019.87 1020.07 1020.23 1020.35 1020.51 1020.67 1020.79 1020.91 1020.99 1021.15 1021.15 1021.31 1021.39 1021.55 1021.67 1021.87 1021.83 1021.91 1021.79 1021.91 1022.15 1022.27 1022.11 1022.19 1022.19 1022.27 1022.51 1022.63
1016.67 1016.91 1017.15 1017.39 1017.55 1017.79 1018.07 1018.31 1018.47 1018.63 1018.87 1019.11 1019.23 1019.27 1019.51 1019.75 1019.95 1020.07 1020.23 1020.43 1020.47 1020.59 1020.71 1020.83 1021.03 1021.11 1021.19 1021.39 1021.55 1021.67 1021.67 1021.71 1021.55 1021.83 1022.07 1022.19 1022.03 1021.83 1021.91 1022.11 1022.39 1022.55
1016.39 1016.67 1016.91 1017.03 1017.31 1017.47 1017.79 1017.91 1018.03 1018.27 1018.47 1018.59 1018.83 1019.19 1019.23 1019.55 1019.75 1019.87 1019.95 1020.11 1020.23 1020.35 1020.47 1020.67 1020.91 1021.03 1021.03 1021.19 1021.47 1021.63 1021.59 1021.63 1021.59 1021.75 1021.99 1021.99 1021.99 1022.03 1021.87 1022.03 1022.23 1022.35
1016.03 1016.19 1016.47 1016.75 1017.07 1017.23 1017.51 1017.63 1017.75 1017.91 1018.07 1018.39 1018.75 1018.83 1018.95 1019.19 1019.39 1019.47 1019.63 1019.79 1019.99 1020.15 1020.31 1020.39 1020.59 1020.79 1020.83 1020.95 1021.27 1021.47 1021.55 1021.39 1021.59 1021.75 1021.91 1021.95 1021.91 1022.11 1021.95 1021.87 1021.95 1022.19
1015.63 1015.95 1016.19 1016.51 1016.79 1016.91 1017.11 1017.19 1017.31 1017.47 1017.63 1018.07 1018.31 1018.43 1018.55 1018.79 1018.99 1019.11 1019.35 1019.55 1019.75 1019.87 1020.07 1020.19 1020.35 1020.47 1020.51 1020.71 1020.95 1021.19 1021.39 1021.35 1021.27 1021.47 1021.71 1021.83 1021.91 1021.91 1021.79 1021.63 1021.87 1021.95
1015.39 1015.51 1015.79 1016.11 1016.43 1016.47 1016.67 1016.71 1016.79 1017.03 1017.23 1017.59 1017.79 1017.95 1018.31 1018.39 1018.55 1018.79 1019.03 1019.35 1019.55 1019.71 1019.79 1019.87 1020.03 1020.11 1020.23 1020.35 1020.63 1020.79 1021.03 1021.19 1021.23 1021.31 1021.35 1021.43 1021.51 1021.51 1021.47 1021.51 1021.63 1021.75
1015.03 1015.23 1015.55 1015.75 1015.91 1015.99 1016.19 1016.31 1016.51 1016.67 1016.91 1017.23 1017.47 1017.71 1017.79 1018.03 1018.35 1018.43 1018.79 1019.03 1019.23 1019.31 1019.43 1019.55 1019.63 1019.75 1019.95 1020.03 1020.11 1020.19 1020.47 1020.67 1020.83 1020.95 1021.07 1021.15 1021.15 1021.19 1021.19 1021.23 1021.31 1021.39
1014.63 1014.83 1015.07 1015.27 1015.47 1015.63 1015.79 1015.99 1016.15 1016.39 1016.59 1016.79 1017.03 1017.43 1017.55 1017.67 1017.95 1018.15 1018.35 1018.63 1018.67 1018.75 1018.83 1018.99 1019.11 1019.31 1019.51 1019.63 1019.71 1019.79 1020.03 1020.19 1020.35 1020.55 1020.67 1020.75 1020.79 1020.83 1020.87 1020.87 1020.95 1020.95
1014.23 1014.39 1014.51 1014.79 1015.03 1015.19 1015.35 1015.59 1015.79 1015.95 1016.19 1016.43 1016.59 1016.95 1017.27 1017.47 1017.55 1017.79 1017.87 1018.07 1018.23 1018.31 1018.43 1018.55 1018.71 1018.83 1019.07 1019.23 1019.39 1019.51 1019.67 1019.91 1020.03 1020.15 1020.31 1020.39 1020.39 1020.39 1020.35 1020.39 1020.43 1020.47
1013.67 1013.79 1014.11 1014.35 1014.51 1014.79 1015.03 1015.19 1015.35 1015.59 1015.79 1015.95 1016.23 1016.59 1016.83 1016.99 1017.19 1017.39 1017.47 1017.59 1017.79 1017.95 1018.03 1018.11 1018.35 1018.51 1018.67 1018.83 1018.99 1019.15 1019.35 1019.51 1019.67 1019.83 1019.95 1019.99 1020.03 1019.99 1019.99 1019.99 1019.99 1019.99
1013.35 1013.55 1013.79 1014.11 1014.35 1014.63 1014.87 1015.07 1015.15 1015.35 1015.51 1015.75 1015.95 1016.15 1016.27 1016.43 1016.59 1016.79 1017.11 1017.31 1017.35 1017.55 1017.71 1017.79 1017.99 1018.15 1018.15 1018.31 1018.63 1018.83 1018.87 1019.07 1019.23 1019.39 1019.55 1019.71 1019.75 1019.67 1019.63 1019.67 1019.67 1019.59
1013.15 1013.39 1013.59 1013.79 1014.19 1014.43 1014.59 1014.79 1014.95 1015.11 1015.27 1015.51 1015.71 1015.87 1016.07 1016.23 1016.39 1016.55 1016.71 1016.95 1017.19 1017.27 1017.35 1017.47 1017.59 1017.51 1017.59 1017.83 1017.99 1018.19 1018.43 1018.55 1018.75 1018.95 1019.11 1019.27 1019.47 1019.55 1019.43 1019.31 1019.23 1019.19
1012.91 1013.23 1013.43 1013.75 1013.79 1013.95 1014.23 1014.55 1014.75 1014.83 1015.07 1015.27 1015.43 1015.63 1015.83 1016.07 1016.27 1016.51 1016.55 1016.55 1016.75 1016.95 1017.11 1017.11 1017.07 1016.95 1017.15 1017.51 1017.79 1017.95 1018.07 1018.27 1018.51 1018.67 1018.75 1018.91 1019.03 1019.19 1019.27 1019.07 1018.87 1018.79
1012.51 1012.83 1013.19 1013.35 1013.51 1013.79 1013.95 1014.11 1014.35 1014.67 1014.91 1015.03 1015.19 1015.43 1015.59 1015.71 1016.03 1016.15 1016.23 1016.27 1016.35 1016.47 1016.59 1016.59 1016.59 1016.47 1016.79 1017.15 1017.43 1017.67 1017.87 1017.91 1017.95 1018.19 1018.31 1018.51 1018.59 1018.63 1018.59 1018.59 1018.63 1018.55
1012.23 1012.63 1012.87 1013.07 1013.23 1013.31 1013.51 1013.79 1014.15 1014.43 1014.59 1014.75 1014.91 1014.83 1015.11 1015.55 1015.63 1015.71 1015.87 1015.87 1015.99 1016.19 1016.19 1016.07 1016.07 1015.99 1016.43 1016.75 1017.03 1017.35 1017.63 1017.79 1017.63 1017.63 1017.83 1017.95 1018.03 1018.11 1018.15 1018.23 1018.27 1018.35
1012.07 1012.39 1012.67 1012.79 1012.87 1013.11 1013.43 1013.79 1014.07 1014.23 1014.07 1014.03 1014.23 1014.55 1014.95 1015.07 1015.11 1015.35 1015.43 1015.59 1015.67 1015.75 1015.79 1015.63 1015.59 1015.51 1015.95 1016.31 1016.67 1016.95 1017.23 1017.63 1017.35 1017.31 1017.35 1017.39 1017.51 1017.55 1017.63 1017.71 1017.79 1017.95
1012.39 1012.59 1012.75 1012.83 1012.91 1013.11 1013.39 1013.59 1013.75 1013.83 1013.95 1013.99 1014.07 1014.27 1014.51 1014.67 1014.75 1014.99 1015.03 1015.11 1015.19 1015.23 1015.35 1015.39 1015.07 1015.07 1015.55 1015.87 1016.23 1016.55 1016.83 1017.27 1017.11 1017.03 1016.99 1017.03 1016.99 1017.03 1017.11 1017.15 1017.19 1017.27
1012.23 1012.31 1012.43 1012.79 1013.23 1013.51 1013.67 1013.71 1013.63 1013.71 1013.87 1013.79 1013.83 1013.83 1013.87 1013.99 1014.23 1014.35 1014.55 1014.63 1014.59 1014.75 1014.99 1015.03 1014.51 1014.63 1015.07 1015.43 1015.75 1016.11 1016.55 1017.07 1016.95 1016.95 1016.87 1016.75 1016.67 1016.59 1016.59 1016.59 1016.59 1016.71
1012.35 1012.51 1012.47 1012.39 1012.59 1013.31 1013.87 1013.95 1013.63 1013.55 1013.55 1013.59 1013.99 1013.87 1013.87 1013.91 1013.87 1013.87 1013.87 1013.99 1014.19 1014.39 1014.55 1014.43 1014.15 1014.07 1014.51 1014.87 1015.27 1015.67 1016.47 1016.55 1016.51 1016.51 1016.55 1016.51 1016.35 1016.15 1016.07 1016.07 1016.07 1016.15
1012.03 1012.27 1012.67 1012.87 1012.95 1013.03 1013.03 1013.23 1013.71 1013.63 1013.55 1013.43 1013.75 1013.79 1013.75 1013.43 1013.31 1013.43 1013.39 1013.39 1013.63 1013.79 1013.75 1013.95 1013.71 1013.51 1013.99 1014.39 1014.79 1015.35 1015.71 1015.83 1015.95 1016.15 1016.19 1016.15 1015.99 1015.75 1015.59 1015.55 1015.47 1015.59
1011.95 1011.95 1012.11 1012.47 1012.79 1012.95 1012.99 1013.03 1013.27 1013.71 1013.59 1013.63 1013.59 1013.51 1013.39 1013.15 1013.15 1013.15 1013.07 1012.95 1012.87 1012.95 1013.03 1013.35 1013.15 1013.03 1013.39 1013.87 1014.35 1014.87 1015.31 1015.27 1015.35 1015.63 1015.87 1015.75 1015.59 1015.47 1015.19 1015.11 1015.03 1014.99
1011.91 1011.95 1011.83 1011.87 1012.07 1012.23 1012.39 1012.47 1012.31 1012.79 1013.63 1014.19 1014.03 1013.43 1013.31 1013.03 1012.87 1012.75 1012.79 1012.59 1012.31 1012.35 1012.39 1012.51 1012.63 1012.47 1012.63 1013.15 1013.67 1014.27 1014.63 1014.67 1014.79 1015.27 1015.39 1015.19 1015.03 1014.99 1015.03 1014.79 1014.63 1014.55
Thickness
5785 5784 5783 5782 5782 5782 5782 5782 5781 5780 5779 5780 5780 5780 5781 5782 5782 5782 5781 5779 5778 5777 5776 5775 5774 5774 5774 5774 5774 5774 5774 5774 5774 5774 5773 5772 5771 5771 5770 5770 5771 5770
5785 5785 5784 5783 5783 5783 5784 5784 5783 5782 5780 5781 5781 5782 5782 5782 5782 5782 5781 5780 5779 5778 5777 5776 5775 5775 5775 5775 5775 5775 5774 5774 5774 5775 5774 5773 5773 5772 5771 5771 5772 5771
5786 5785 5785 5784 5784 5783 5784 5785 5784 5783 5783 5782 5782 5782 5782 5782 5782 5781 5781 5780 5779 5779 5778 5777 5777 5776 5776 5776 5776 5776 5776 5775 5775 5777 5775 5775 5774 5773 5773 5774 5774 5774
5787 5786 5786 5786 5787 5786 5785 5785 5784 5784 5784 5783 5782 5782 5782 5782 5782 5781 5781 5780 5780 5779 5779 5778 5778 5778 5777 5777 5777 5776 5777 5776 5776 5777 5775 5775 5776 5775 5775 5775 5775 5775
5789 5788 5788 5788 5788 5788 5786 5785 5785 5785 5785 5784 5784 5784 5782 5782 5781 5781 5781 5781 5781 5781 5781 5779 5779 5779 5778 5777 5777 5777 5777 5777 5778 5777 5775 5775 5777 5777 5777 5776 5775 5775
5790 5790 5790 5789 5789 5789 5787 5786 5786 5786 5786 5785 5785 5785 5784 5783 5782 5782 5783 5782 5783 5783 5783 5782 5781 5780 5779 5778 5778 5777 5778 5778 5778 5778 5776 5775 5777 5778 5779 5777 5775 5775
5792 5791 5790 5790 5790 5789 5789 5789 5788 5788 5787 5787 5786 5786 5785 5784 5783 5784 5784 5784 5784 5784 5784 5784 5782 5781 5781 5780 5779 5778 5778 5778 5778 5778 5776 5777 5777 5777 5778 5778 5777 5776
5793 5792 5792 5791 5791 5790 5790 5790 5790 5790 5789 5788 5787 5787 5786 5786 5785 5786 5786 5785 5785 5785 5785 5785 5784 5783 5782 5782 5780 5778 5778 5779 5779 5778 5777 5777 5777 5777 5778 5779 5778 5778
5794 5794 5793 5792 5791 5792 5792 5792 5792 5791 5791 5790 5788 5788 5788 5788 5787 5787 5787 5787 5786 5786 5786 5786 5785 5785 5785 5784 5782 5780 5779 5779 5780 5779 5778 5778 5778 5777 5779 5780 5779 5779
5794 5795 5794 5793 5793 5794 5793 5793 5793 5793 5792 5791 5790 5790 5789 5789 5789 5789 5788 5788 5787 5786 5787 5787 5787 5787 5786 5785 5785 5784 5782 5781 5781 5781 5780 5779 5779 5780 5780 5781 5781 5780
5795 5795 5796 5795 5794 5795 5794 5794 5793 5793 5793 5792 5790 5790 5790 5790 5790 5789 5789 5788 5788 5788 5788 5788 5789 5789 5788 5788 5788 5788 5786 5785 5784 5783 5782 5782 5781 5782 5782 5783 5783 5783
5796 5797 5797 5796 5796 5795 5794 5794 5794 5793 5793 5792 5791 5790 5790 5790 5790 5790 5790 5790 5790 5791 5791 5791 5791 5791 5790 5790 5790 5790 5789 5788 5787 5786 5785 5784 5784 5784 5785 5785 5785 5785
5797 5798 5799 5798 5797 5796 5795 5795 5794 5794 5794 5793 5793 5791 5790 5790 5791 5791 5791 5792 5791 5792 5792 5792 5793 5793 5792 5792 5792 5792 5791 5790 5790 5789 5788 5787 5787 5787 5788 5788 5789 5789
5797 5798 5798 5798 5797 5797 5796 5796 5796 5796 5795 5794 5794 5792 5792 5792 5792 5792 5792 5792 5793 5793 5793 5794 5794 5794 5794 5793 5793 5793 5792 5792 5791 5790 5790 5790 5790 5791 5791 5791 5792 5792
5796 5796 5796 5796 5796 5796 5796 5797 5797 5796 5796 5795 5794 5794 5794 5793 5794 5793 5793 5793 5793 5794 5794 5795 5795 5795 5796 5796 5794 5794 5794 5793 5793 5792 5791 5791 5791 5792 5794 5795 5794 5796
5794 5793 5794 5794 5795 5796 5796 5796 5797 5796 5796 5795 5795 5795 5794 5793 5793 5793 5793 5794 5794 5794 5795 5795 5796 5798 5798 5797 5797 5796 5795 5794 5794 5794 5793 5793 5793 5793 5795 5796 5797 5798
5794 5793 5793 5793 5794 5795 5796 5796 5796 5796 5796 5796 5795 5795 5794 5793 5793 5793 5794 5795 5795 5794 5795 5796 5798 5800 5799 5797 5797 5796 5795 5796 5795 5794 5794 5794 5794 5795 5796 5797 5799 5800
5794 5793 5792 5793 5794 5795 5795 5796 5796 5795 5796 5796 5796 5796 5795 5794 5793 5794 5794 5796 5796 5795 5796 5798 5800 5801 5800 5798 5797 5795 5795 5795 5796 5795 5795 5795 5796 5797 5798 5799 5800 5801
5793 5792 5792 5792 5794 5794 5795 5795 5793 5794 5796 5797 5798 5798 5796 5794 5795 5796 5796 5797 5797 5796 5797 5799 5801 5801 5800 5798 5797 5796 5794 5794 5796 5796 5796 5797 5797 5799 5799 5801 5801 5801
5789 5788 5789 5791 5792 5793 5791 5791 5790 5792 5795 5797 5798 5797 5796 5795 5797 5797 5797 5797 5797 5797 5798 5800 5803 5803 5801 5798 5796 5796 5794 5793 5795 5797 5798 5798 5799 5800 5801 5802 5802 5802
5785 5785 5785 5785 5786 5786 5786 5786 5787 5789 5791 5793 5795 5796 5796 5797 5797 5797 5798 5798 5799 5799 5799 5800 5803 5804 5801 5799 5797 5796 5793 5792 5794 5796 5798 5799 5800 5802 5803 5803 5804 5804
5783 5785 5786 5785 5782 5780 5779 5780 5783 5786 5788 5789 5791 5793 5795 5796 5797 5797 5799 5799 5799 5799 5798 5801 5805 5805 5802 5800 5798 5796 5792 5792 5794 5796 5797 5799 5802 5803 5804 5805 5806 5806
5782 5783 5784 5785 5783 5780 5777 5777 5779 5782 5785 5786 5786 5788 5791 5793 5795 5797 5799 5799 5799 5799 5800 5802 5806 5806 5804 5801 5799 5796 5793 5793 5795 5796 5798 5799 5802 5805 5806 5807 5808 5808
5782 5781 5779 5779 5779 5780 5780 5779 5777 5777 5780 5783 5783 5784 5787 5792 5794 5796 5798 5800 5801 5802 5803 5804 5807 5808 5805 5802 5801 5797 5795 5796 5797 5797 5797 5800 5802 5805 5808 5809 5810 5810
5779 5780 5780 5778 5777 5777 5780 5781 5780 5777 5776 5775 5777 5781 5785 5788 5791 5793 5796 5801 5803 5805 5806 5806 5808 5810 5807 5804 5801 5798 5796 5798 5799 5797 5798 5801 5803 5805 5808 5810 5811 5812
5774 5777 5778 5779 5778 5778 5780 5783 5785 5784 5777 5772 5770 5775 5779 5784 5788 5792 5795 5800 5804 5807 5808 5809 5810 5811 5809 5806 5803 5799 5798 5799 5799 5799 5800 5802 5805 5806 5807 5809 5812 5813